Regional Weather Roundup
Issued by NWS

Home | Current Version | Previous Version | Graphics & Text | Print | Product List | Glossary On
Versions: 1 2 3 4 5 6 7 8 9 10 11 12 13 14 15 16 17 18 19 20 21 22 23 24 25 26 27 28
000
ASUS45 KSLC 221510
RWRUT

UTAH REGIONAL WEATHER ROUNDUP
NATIONAL WEATHER SERVICE SALT LAKE CITY UT
900 AM MDT TUE AUG 22 2017

UTZ001>011-023>025-221600-

NORTHERN UTAH

CITY           SKY/WX    TMP DP  RH WIND       PRES   REMARKS
BRIGHAM CITY   SUNNY     64  38  39 NW3       30.23R
DUGWAY         PTSUNNY   76  42  30 VRB2      30.22R
HILL AFB       MOSUNNY   67  41  38 SE14      30.24R
LOGAN          SUNNY     61  40  45 CALM      30.25R
OGDEN          MOSUNNY   71  43  36 SE5       30.21R
SALT LAKE CITY PTSUNNY   77  49  37 SE13      30.21R
TOOELE VALLEY  CLOUDY    73  45  35 S9        30.22R
WENDOVER       CLOUDY    74  35  24 CALM      30.22R
HEBER CITY     PTSUNNY   55  48  76 CALM      30.32S
WEST JORDAN    PTSUNNY   72  56  55 S17       30.25R

$$

UTZ011>015-024>027-221600-

CENTRAL/NORTHEAST UTAH

CITY           SKY/WX    TMP DP  RH WIND       PRES   REMARKS
PROVO AIRPORT  PTSUNNY   73  48  41 E6        30.26S
MOAB/CANYONLAN PTSUNNY   78  44  29 E6        30.22R
DELTA          CLOUDY    68  46  45 SW6       30.27S
PRICE          MOSUNNY   70  41  34 CALM      30.32R
ROOSEVELT      SUNNY     70  41  35 NE3       30.30S
VERNAL         SUNNY     71  44  37 CALM      30.29R

$$

UTZ013>016-019>022-027-221600-

SOUTHERN UTAH

CITY           SKY/WX    TMP DP  RH WIND       PRES   REMARKS
BRYCE CANYON   CLOUDY    57  51  80 N5        30.47F
CEDAR CITY     CLOUDY    69  48  47 E14       30.30S
MILFORD        CLOUDY    64  52  64 SW6       30.29R
ST GEORGE      PTSUNNY   77  54  44 CALM      30.17R
HANKSVILLE     CLOUDY    73  45  35 E5        30.25R
BLANDING       CLOUDY    67  50  54 CALM      30.43R

$$

REGIONAL REPORTS     COLORADO/ARIZONA

CITY           SKY/WX    TMP DP  RH WIND       PRES   REMARKS
CRAIG, CO      SUNNY     60  40  47 CALM      30.37S
GRAND JUNCTION SUNNY     75  44  33 E12       30.27R
RIFLE, CO      SUNNY     65  44  46 CALM      30.34R
MONTROSE, CO   CLOUDY    63  47  55 S6        30.36S
CORTEZ, CO     CLOUDY    60  53  77 E3        30.36R
COLORADO CITY    N/A     68  59  73 SE9       30.32R
PAGE, AZ       PTSUNNY   73  55  53 SW6       30.25R
GRAND CANYON   MOSUNNY   65  53  65 NE5       30.39R
KINGMAN, AZ    MOSUNNY   73  56  54 NE6       30.17R
FLAGSTAFF, AZ  SUNNY     63  54  72 CALM      30.41R

$$

REGIONAL REPORTS    NEVADA/IDAHO/WYOMING

CITY           SKY/WX    TMP DP  RH WIND       PRES   REMARKS
LAS VEGAS, NV  MOSUNNY   83  54  36 CALM      30.09R
ELY, NY        CLOUDY    61  47  59 S8        30.35R
ELKO, NV       CLOUDY    65  31  28 NE7       30.25R
POCATELLO, ID  SUNNY     57  38  48 NW3       30.25R
BURLEY, ID     SUNNY     56  45  66 CALM      30.20R
FORT BRIDGER,    N/A     65  32  28 CALM      30.43R
EVANSTON, WY   SUNNY     65  39  38 CALM      30.40R
ROCK SPRINGS,  SUNNY     62  34  35 CALM      30.39R
KEMMERER, WY     N/A     54  34  47 N6        30.41S

$$




USA.gov is the U.S. government's official web portal to all federal, state and local government web resources and services.